Big Bear City, CA

6:50 PM PDT on March 29, 2017 (GMT -0700)
Big Bear City

Weather History for KL35 - October, 2013

Change the Weather History Date:

Wednesday, October 9, 2013

  Actual Average (KBUO) Record (KBUO)
Temperature  
Mean Temperature 34 °F -  
Max Temperature 41 °F 79 °F 93 °F (1996)
Min Temperature 28 °F 51 °F 46 °F (1997)
Degree Days  
Heating Degree Days 30    
Moisture  
Dew Point 29 °F    
Average Humidity 82    
Maximum Humidity 100    
Minimum Humidity 42    
Precipitation  
Precipitation 0.19 in - - ()
Sea Level Pressure  
Sea Level Pressure 29.76 in    
Wind  
Wind Speed 9 mph (WSW)    
Max Wind Speed 24 mph    
Max Gust Speed 39 mph    
Visibility 7 miles    
Events Rain , Snow    
Averages and records for this station are not official NWS values.
T = Trace of Precipitation, MM = Missing Value Source: NWS Daily Summary

Daily Weather History Graph

Daily Weather History Graph

Search for Another Location

Airport or City:

Trip Planner

Search our weather history database for the weather conditions in past years. The results will help you decide how hot, cold, wet, or windy it might be!

Date:

Astronomy

Oct. 09, 2013 Rise Set
Actual Time 6:48 AM PDT 6:20 PM PDT
Civil Twilight 6:23 AM PDT 6:45 PM PDT
Nautical Twilight 5:54 AM PDT 7:14 PM PDT
Astronomical Twilight 5:24 AM PDT 7:43 PM PDT
Moon 11:37 AM PDT (10/9) 10:09 PM PDT (10/9)
Length of Visible Light 12h 22m
Length of Day
11h 32m
Waxing Crescent, 26% of the Moon is Illuminated
Oct 9
Waxing Crescent
Oct 11
First Quarter
Oct 18
Full
Oct 26
Last Quarter
Nov 3
New

Hourly Weather History & Observations

Time (PDT) Temp. Windchill Dew Point Humidity Pressure Visibility Wind Dir Wind Speed Gust Speed Precip Events Conditions
12:15 AM 35.6 °F 31.7 °F 26.6 °F 70% 29.88 in 10.0 mi West 4.6 mph - N/A   Clear
12:35 AM 39.2 °F 33.6 °F 26.6 °F 61% 29.87 in 10.0 mi WSW 8.1 mph - N/A   Clear
12:55 AM 41.0 °F 34.7 °F 26.6 °F 57% 29.86 in 10.0 mi WSW 10.4 mph - N/A   Clear
1:15 AM 41.0 °F 35.2 °F 21.2 °F 45% 29.85 in 10.0 mi WSW 9.2 mph - N/A   Clear
1:35 AM 41.0 °F 35.2 °F 21.2 °F 45% 29.84 in 10.0 mi West 9.2 mph - N/A   Clear
1:55 AM 39.2 °F 34.2 °F 19.4 °F 45% 29.84 in 10.0 mi WSW 6.9 mph - N/A   Clear
2:15 AM 41.0 °F 33.5 °F 19.4 °F 42% 29.83 in 10.0 mi West 13.8 mph 17.3 mph N/A   Clear
2:35 AM 37.4 °F 30.8 °F 30.2 °F 75% 29.83 in 10.0 mi WSW 9.2 mph 16.1 mph N/A   Clear
2:55 AM 35.6 °F 27.1 °F 32.0 °F 87% 29.82 in 10.0 mi WSW 12.7 mph 17.3 mph N/A   Scattered Clouds
3:15 AM 35.6 °F 27.1 °F 32.0 °F 87% 29.81 in 10.0 mi West 12.7 mph 18.4 mph N/A   Scattered Clouds
3:35 AM 35.6 °F 29.2 °F 32.0 °F 87% 29.79 in 10.0 mi WSW 8.1 mph - N/A   Scattered Clouds
3:55 AM 35.6 °F 30.7 °F 28.4 °F 75% 29.78 in 10.0 mi WSW 5.8 mph 20.7 mph N/A   Clear
4:15 AM 37.4 °F 27.8 °F 26.6 °F 65% 29.78 in 10.0 mi WNW 17.3 mph 26.5 mph N/A   Clear
4:35 AM 37.4 °F 29.3 °F 26.6 °F 65% 29.77 in 10.0 mi WNW 12.7 mph 19.6 mph N/A   Clear
4:55 AM 37.4 °F 29.8 °F 26.6 °F 65% 29.77 in 10.0 mi WNW 11.5 mph 21.9 mph N/A   Clear
5:15 AM 35.6 °F 28.0 °F 28.4 °F 75% 29.77 in 10.0 mi West 10.4 mph 18.4 mph N/A   Clear
5:35 AM 33.8 °F 28.6 °F 28.4 °F 81% 29.77 in 10.0 mi West 5.8 mph - N/A   Clear
5:55 AM 35.6 °F 28.0 °F 28.4 °F 75% 29.78 in 10.0 mi West 10.4 mph 23.0 mph N/A   Clear
6:15 AM 33.8 °F 25.3 °F 30.2 °F 87% 29.78 in 10.0 mi WSW 11.5 mph 19.6 mph N/A   Clear
6:35 AM 33.8 °F 26.4 °F 30.2 °F 87% 29.77 in 10.0 mi WSW 9.2 mph - N/A   Clear
6:55 AM 33.8 °F 25.8 °F 30.2 °F 87% 29.78 in 10.0 mi WSW 10.4 mph 18.4 mph N/A   Clear
7:15 AM 33.8 °F 23.9 °F 30.2 °F 87% 29.77 in 10.0 mi West 15.0 mph 19.6 mph N/A   Clear
7:35 AM 33.8 °F 23.5 °F 30.2 °F 87% 29.77 in 10.0 mi WNW 16.1 mph 23.0 mph N/A   Scattered Clouds
7:55 AM 33.8 °F 23.9 °F 30.2 °F 87% 29.77 in 10.0 mi WNW 15.0 mph 20.7 mph N/A   Mostly Cloudy
8:15 AM 35.6 °F 25.5 °F 30.2 °F 81% 29.77 in 10.0 mi West 17.3 mph 24.2 mph N/A   Scattered Clouds
8:35 AM 35.6 °F 27.1 °F 30.2 °F 81% 29.78 in 10.0 mi WSW 12.7 mph 19.6 mph N/A   Clear
8:55 AM 35.6 °F 27.1 °F 30.2 °F 81% 29.79 in 10.0 mi WSW 12.7 mph 25.3 mph N/A   Scattered Clouds
9:15 AM 33.8 °F 26.4 °F 32.0 °F 93% 29.79 in 10.0 mi SW 9.2 mph 18.4 mph N/A   Mostly Cloudy
9:35 AM 33.8 °F 26.4 °F 32.0 °F 93% 29.80 in 7.0 mi WSW 9.2 mph 17.3 mph N/A   Overcast
9:55 AM 33.8 °F 27.7 °F 32.0 °F 93% 29.80 in 10.0 mi WNW 6.9 mph - N/A   Overcast
10:15 AM 35.6 °F 29.2 °F 32.0 °F 87% 29.79 in 7.0 mi WSW 8.1 mph - N/A   Overcast
10:35 AM 35.6 °F 31.7 °F 32.0 °F 87% 29.79 in 7.0 mi West 4.6 mph 17.3 mph N/A   Overcast
10:55 AM 35.6 °F 27.5 °F 32.0 °F 87% 29.78 in 10.0 mi WNW 11.5 mph 17.3 mph N/A   Overcast
11:15 AM 37.4 °F 27.8 °F 32.0 °F 81% 29.77 in 10.0 mi West 17.3 mph - N/A   Mostly Cloudy
11:35 AM 37.4 °F 26.1 °F 30.2 °F 75% 29.78 in 10.0 mi West 24.2 mph 31.1 mph N/A   Scattered Clouds
11:55 AM 35.6 °F 26.2 °F 30.2 °F 81% 29.78 in 10.0 mi West 15.0 mph 39.1 mph N/A   Mostly Cloudy
12:15 PM 35.6 °F 25.9 °F 30.2 °F 81% 29.76 in 10.0 mi West 16.1 mph 25.3 mph N/A   Overcast
12:35 PM 37.4 °F 28.5 °F 30.2 °F 75% 29.75 in 10.0 mi WSW 15.0 mph 33.4 mph N/A   Overcast
12:55 PM 39.2 °F 29.8 °F 30.2 °F 70% 29.74 in 10.0 mi SW 18.4 mph 27.6 mph N/A   Scattered Clouds
1:15 PM 39.2 °F 30.2 °F 28.4 °F 65% 29.74 in 10.0 mi WSW 17.3 mph 27.6 mph N/A   Scattered Clouds
1:55 PM 35.6 °F 27.1 °F 30.2 °F 81% 29.72 in 10.0 mi West 12.7 mph 21.9 mph N/A   Overcast
2:15 PM 39.2 °F 29.6 °F 30.2 °F 70% 29.70 in 10.0 mi West 19.6 mph 28.8 mph N/A   Overcast
2:35 PM 39.2 °F 31.2 °F 28.4 °F 65% 29.69 in 7.0 mi SW 13.8 mph 34.5 mph N/A   Mostly Cloudy
2:55 PM 37.4 °F 30.3 °F 32.0 °F 81% 29.69 in 7.0 mi SW 10.4 mph 29.9 mph N/A   Mostly Cloudy
3:15 PM 35.6 °F 27.5 °F 32.0 °F 87% 29.70 in 4.0 mi SSW 11.5 mph 21.9 mph N/A Rain Light Rain
3:35 PM 33.8 °F 28.6 °F 32.0 °F 93% 29.71 in 1.8 mi SW 5.8 mph 16.1 mph N/A Rain Light Rain
3:55 PM 32.0 °F 28.7 °F 32.0 °F 100% 29.73 in 0.8 mi SSW 3.5 mph - 0.01 in Snow Light Snow
4:15 PM 32.0 °F 24.8 °F 30.2 °F 93% 29.73 in 0.8 mi WSW 8.1 mph 18.4 mph 0.02 in Snow Light Snow
4:55 PM 32.0 °F 27.5 °F 32.0 °F 100% 29.71 in 0.8 mi SW 4.6 mph - 0.04 in Snow Light Snow
5:15 PM 32.0 °F 26.4 °F 32.0 °F 100% 29.71 in 1.2 mi West 5.8 mph - 0.01 in Snow Light Snow
5:35 PM 32.0 °F 27.5 °F 32.0 °F 100% 29.71 in 0.5 mi WSW 4.6 mph - 0.03 in Snow Snow
5:55 PM 32.0 °F 27.5 °F 30.2 °F 93% 29.70 in 0.8 mi WSW 4.6 mph - 0.04 in Snow Light Snow
6:15 PM 32.0 °F 27.5 °F 30.2 °F 93% 29.70 in 1.5 mi WSW 4.6 mph - N/A Snow Light Snow
6:35 PM 32.0 °F 26.4 °F 30.2 °F 93% 29.71 in 1.8 mi WSW 5.8 mph - N/A Snow Light Snow
6:55 PM 32.0 °F 28.7 °F 30.2 °F 93% 29.71 in 1.0 mi SW 3.5 mph - 0.02 in Snow Light Snow
7:15 PM 32.0 °F 27.5 °F 30.2 °F 93% 29.70 in 1.8 mi WSW 4.6 mph - 0.01 in Snow Light Snow
7:35 PM 32.0 °F 28.7 °F 30.2 °F 93% 29.71 in 3.0 mi WSW 3.5 mph - 0.01 in Snow Light Snow
7:55 PM 32.0 °F - 30.2 °F 93% 29.72 in 1.0 mi Calm Calm - 0.02 in Snow Snow
8:15 PM 32.0 °F - 30.2 °F 93% 29.72 in 1.2 mi Calm Calm - 0.01 in Snow Snow
8:35 PM 32.0 °F - 30.2 °F 93% 29.72 in 0.8 mi Calm Calm - 0.03 in Snow Snow
8:55 PM 32.0 °F - 30.2 °F 93% 29.73 in 1.2 mi Calm Calm - 0.03 in Snow Light Snow
9:15 PM 30.2 °F 26.7 °F 30.2 °F 100% 29.74 in 1.8 mi SW 3.5 mph - 0.01 in Snow Light Snow
9:55 PM 30.2 °F 25.4 °F 26.6 °F 86% 29.75 in 7.0 mi WSW 4.6 mph - 0.03 in   Mostly Cloudy
10:15 PM 28.4 °F 23.3 °F 26.6 °F 93% 29.75 in 10.0 mi WSW 4.6 mph - N/A   Scattered Clouds
10:35 PM 28.4 °F 23.3 °F 26.6 °F 93% 29.75 in 10.0 mi WSW 4.6 mph - N/A   Scattered Clouds
10:55 PM 28.4 °F 23.3 °F 24.8 °F 86% 29.76 in 10.0 mi West 4.6 mph - N/A   Scattered Clouds
11:15 PM 28.4 °F 24.6 °F 26.6 °F 93% 29.75 in 10.0 mi WSW 3.5 mph - N/A   Mostly Cloudy
11:35 PM 28.4 °F 24.6 °F 26.6 °F 93% 29.76 in 10.0 mi SW 3.5 mph - N/A   Overcast
11:55 PM 28.4 °F 24.6 °F 26.6 °F 93% 29.77 in 5.0 mi WSW 3.5 mph - N/A   Overcast